WZZ166 UKBB-LATI

Flight info

Callsign WZZ166
Flight time N/A
Altitude 34000
Route VESEL M854 GOROS N181 LAVDA N145 VILIS/N0449F340 DCT EBCOL DCT ELDET DCT OKANA DCT PETAK
Aircraft A321/M-SDE3FGHIRWY/LB1

Departure

Time 2026-04-28 07:54
Airport Boryspil International Airport (UKBB)

Arrival

Time N/A
Airport Tirana International Airport Mother Teresa (LATI)
Time Latitude Longitude Altitude Speed Heading
2026-04-28 07:25 50.35119 30.90137 411 ft 0 kts 93°
2026-04-28 07:40 50.35121 30.90107 412 ft 4 kts 98°
2026-04-28 07:40 50.35126 30.90066 406 ft 4 kts 110°
2026-04-28 07:40 50.35138 30.90030 406 ft 4 kts 136°
2026-04-28 07:40 50.35156 30.90015 409 ft 1 kts 182°
2026-04-28 07:41 50.35160 30.90015 408 ft 0 kts 182°
2026-04-28 07:44 50.35140 30.90013 408 ft 8 kts 183°
2026-04-28 07:45 50.35056 30.90007 415 ft 15 kts 183°
2026-04-28 07:45 50.34959 30.89999 415 ft 11 kts 183°
2026-04-28 07:45 50.34897 30.90053 412 ft 10 kts 118°
2026-04-28 07:45 50.34891 30.90150 415 ft 9 kts 94°
2026-04-28 07:46 50.34858 30.90224 410 ft 8 kts 154°
2026-04-28 07:46 50.34790 30.90229 408 ft 11 kts 181°
2026-04-28 07:46 50.34695 30.90223 413 ft 17 kts 182°
2026-04-28 07:46 50.34555 30.90212 410 ft 23 kts 182°
2026-04-28 07:47 50.34392 30.90200 412 ft 23 kts 182°
2026-04-28 07:47 50.34228 30.90188 415 ft 24 kts 182°
2026-04-28 07:47 50.34064 30.90176 415 ft 24 kts 182°
2026-04-28 07:47 50.33899 30.90164 409 ft 24 kts 183°
2026-04-28 07:48 50.33733 30.90152 410 ft 24 kts 182°
2026-04-28 07:48 50.33571 30.90141 412 ft 24 kts 182°
2026-04-28 07:48 50.33405 30.90128 416 ft 24 kts 182°
2026-04-28 07:48 50.33239 30.90116 405 ft 24 kts 182°
2026-04-28 07:49 50.33073 30.90104 412 ft 24 kts 182°
2026-04-28 07:49 50.32908 30.90092 412 ft 24 kts 182°
2026-04-28 07:49 50.32743 30.90080 415 ft 24 kts 183°
2026-04-28 07:49 50.32579 30.90068 415 ft 24 kts 182°
2026-04-28 07:50 50.32505 30.90077 415 ft 0 kts 163°
2026-04-28 07:50 50.32501 30.90079 408 ft 1 kts 162°
2026-04-28 07:50 50.32494 30.90084 414 ft 1 kts 154°
2026-04-28 07:50 50.32493 30.90086 414 ft 0 kts 153°
2026-04-28 07:51 50.32488 30.90090 411 ft 3 kts 151°
2026-04-28 07:52 50.32459 30.90127 412 ft 8 kts 131°
2026-04-28 07:52 50.32442 30.90223 416 ft 9 kts 85°
2026-04-28 07:52 50.32458 30.90289 410 ft 4 kts 59°
2026-04-28 07:52 50.32477 30.90330 420 ft 6 kts 50°
2026-04-28 07:53 50.32519 30.90380 421 ft 10 kts 21°
2026-04-28 07:53 50.32588 30.90392 422 ft 10 kts
2026-04-28 07:53 50.32751 30.90404 415 ft 52 kts
2026-04-28 07:53 50.33338 30.90447 412 ft 115 kts
2026-04-28 07:54 50.34318 30.90520 413 ft 165 kts
2026-04-28 07:54 50.35520 30.90629 929 ft 169 kts 359°
2026-04-28 07:54 50.36666 30.90802 1708 ft 168 kts
2026-04-28 07:54 50.37843 30.90985 2345 ft 174 kts 360°
2026-04-28 07:55 50.39116 30.91136 2631 ft 194 kts 358°
2026-04-28 07:55 50.40541 30.91220 2808 ft 217 kts 357°
2026-04-28 07:55 50.42134 30.91288 3044 ft 239 kts 358°
2026-04-28 07:55 50.43824 30.91364 3676 ft 245 kts 358°
2026-04-28 07:56 50.45543 30.91456 4433 ft 248 kts 358°
2026-04-28 07:56 50.47279 30.91558 5206 ft 251 kts 358°
2026-04-28 07:56 50.49035 30.91663 5943 ft 254 kts 358°
2026-04-28 07:56 50.50817 30.91778 6664 ft 259 kts 359°
2026-04-28 07:57 50.52591 30.92217 7341 ft 264 kts
2026-04-28 07:57 50.54394 30.92889 8022 ft 273 kts 22°
2026-04-28 07:57 50.55841 30.94897 8664 ft 288 kts 56°
2026-04-28 07:57 50.56416 30.97945 9305 ft 299 kts 90°
2026-04-28 07:58 50.55905 31.01109 9953 ft 303 kts 121°
2026-04-28 07:58 50.54596 31.03778 10239 ft 318 kts 139°
2026-04-28 07:58 50.52695 31.05638 10374 ft 331 kts 165°
2026-04-28 07:58 50.50401 31.06397 10499 ft 345 kts 179°
2026-04-28 07:59 50.48001 31.06485 10813 ft 353 kts 188°
2026-04-28 07:59 50.45566 31.05967 11318 ft 353 kts 199°
2026-04-28 07:59 50.43264 31.04718 11904 ft 349 kts 212°
2026-04-28 07:59 50.41180 31.02799 12533 ft 348 kts 219°
2026-04-28 08:00 50.39135 31.00762 13203 ft 349 kts 220°
2026-04-28 08:00 50.37089 30.98692 13861 ft 351 kts 221°
2026-04-28 08:00 50.35036 30.96606 14438 ft 353 kts 221°
2026-04-28 08:00 50.32969 30.94513 15006 ft 355 kts 221°
2026-04-28 08:01 50.30886 30.92417 15575 ft 357 kts 221°
2026-04-28 08:01 50.28901 30.90207 16129 ft 352 kts 229°
2026-04-28 08:01 50.27214 30.87490 16676 ft 345 kts 238°
2026-04-28 08:01 50.25706 30.84541 17118 ft 349 kts 238°
2026-04-28 08:02 50.24179 30.81565 17647 ft 352 kts 238°
2026-04-28 08:02 50.22637 30.78573 18210 ft 355 kts 238°
2026-04-28 08:02 50.21081 30.75567 18713 ft 357 kts 238°
2026-04-28 08:02 50.19510 30.72545 19190 ft 360 kts 238°
2026-04-28 08:03 50.17926 30.69507 19659 ft 362 kts 238°
2026-04-28 08:03 50.16335 30.66455 20133 ft 364 kts 238°
2026-04-28 08:03 50.14754 30.63420 20568 ft 366 kts 238°
2026-04-28 08:03 50.13143 30.60324 21007 ft 369 kts 238°
2026-04-28 08:04 50.11520 30.57213 21452 ft 371 kts 238°
2026-04-28 08:04 50.09887 30.54084 21828 ft 374 kts 238°
2026-04-28 08:04 50.08235 30.50923 22166 ft 378 kts 238°
2026-04-28 08:04 50.06569 30.47735 22560 ft 381 kts 238°
2026-04-28 08:05 50.04891 30.44529 22977 ft 383 kts 238°
2026-04-28 08:05 50.03224 30.41348 23369 ft 385 kts 238°
2026-04-28 08:05 50.01527 30.38115 23760 ft 388 kts 238°
2026-04-28 08:05 49.99816 30.34859 24091 ft 390 kts 238°
2026-04-28 08:06 49.98095 30.31589 24413 ft 392 kts 238°
2026-04-28 08:06 49.96364 30.28305 24753 ft 394 kts 238°
2026-04-28 08:06 49.94625 30.25006 25068 ft 396 kts 237°
2026-04-28 08:06 49.92877 30.21690 25330 ft 398 kts 237°
2026-04-28 08:07 49.91111 30.18347 25575 ft 402 kts 237°
2026-04-28 08:07 49.89327 30.14987 25878 ft 405 kts 237°
2026-04-28 08:07 49.87531 30.11613 26186 ft 407 kts 237°
2026-04-28 08:07 49.85751 30.08269 26494 ft 408 kts 237°
2026-04-28 08:08 49.83940 30.04866 26789 ft 410 kts 237°
2026-04-28 08:08 49.82120 30.01450 27072 ft 412 kts 237°
2026-04-28 08:08 49.80292 29.98020 27380 ft 414 kts 237°
2026-04-28 08:08 49.78461 29.94585 27675 ft 416 kts 237°
2026-04-28 08:09 49.76614 29.91130 27966 ft 417 kts 237°
2026-04-28 08:09 49.74757 29.87661 28195 ft 420 kts 236°
2026-04-28 08:09 49.72884 29.84177 28478 ft 422 kts 236°
2026-04-28 08:09 49.71002 29.80684 28817 ft 423 kts 236°
2026-04-28 08:10 49.69070 29.77333 29224 ft 427 kts 229°
2026-04-28 08:10 49.66681 29.74535 29623 ft 437 kts 217°
2026-04-28 08:10 49.63869 29.72598 30008 ft 450 kts 204°
2026-04-28 08:10 49.60757 29.71693 30354 ft 463 kts 190°
2026-04-28 08:11 49.57503 29.71961 30656 ft 476 kts 176°
2026-04-28 08:11 49.54257 29.73006 30936 ft 478 kts 174°
2026-04-28 08:11 49.51000 29.73944 31227 ft 473 kts 180°
2026-04-28 08:11 49.47748 29.74160 31519 ft 463 kts 190°
2026-04-28 08:12 49.44623 29.73605 31805 ft 454 kts 199°
2026-04-28 08:12 49.41614 29.72323 32086 ft 445 kts 208°
2026-04-28 08:12 49.38818 29.70405 32362 ft 437 kts 215°
2026-04-28 08:12 49.36125 29.68243 32639 ft 437 kts 214°
2026-04-28 08:13 49.33424 29.66101 32922 ft 437 kts 214°
2026-04-28 08:13 49.30720 29.63972 33156 ft 437 kts 214°
2026-04-28 08:13 49.28016 29.61848 33427 ft 436 kts 214°
2026-04-28 08:13 49.25317 29.59724 33706 ft 436 kts 214°
2026-04-28 08:14 49.22657 29.57629 33979 ft 435 kts 214°
2026-04-28 08:14 49.19966 29.55513 34139 ft 436 kts 214°
2026-04-28 08:14 49.14570 29.51273 34163 ft 436 kts 214°
2026-04-28 08:15 49.09181 29.47046 34171 ft 435 kts 214°
2026-04-28 08:15 49.03804 29.42841 34165 ft 434 kts 214°
2026-04-28 08:16 48.98463 29.38677 34166 ft 434 kts 214°
2026-04-28 08:16 48.93076 29.34499 34169 ft 435 kts 214°
2026-04-28 08:17 48.87688 29.30332 34141 ft 435 kts 214°
2026-04-28 08:17 48.82284 29.26146 34148 ft 436 kts 214°
2026-04-28 08:18 48.76890 29.21968 34160 ft 436 kts 214°
2026-04-28 08:18 48.71516 29.17835 34165 ft 436 kts 214°
2026-04-28 08:19 48.66098 29.13685 34149 ft 436 kts 214°
2026-04-28 08:19 48.60682 29.09524 34155 ft 437 kts 214°
2026-04-28 08:20 48.55258 29.05378 34159 ft 437 kts 214°
2026-04-28 08:20 48.49871 29.01276 34120 ft 437 kts 214°
2026-04-28 08:21 48.44444 28.97151 34142 ft 437 kts 214°
2026-04-28 08:21 48.39016 28.93036 34164 ft 437 kts 214°
2026-04-28 08:22 48.33589 28.88931 34164 ft 436 kts 214°
2026-04-28 08:22 48.28165 28.84828 34134 ft 436 kts 213°